Dallas/Ft Worth, TX

3:21 AM CST on November 21, 2019 (GMT -0600)
Dallas-Fort Worth International

Weather History for KDFW - September, 2019

Change the Weather History Date:

Monday, September 30, 2019

  Actual Average Record
Temperature  
Mean Temperature 84 °F 73 °F  
Max Temperature 93 °F 83 °F 98 °F (1977)
Min Temperature 75 °F 62 °F 43 °F (1984)
Degree Days  
Heating Degree Days 0 1  
Month to date heating degree days 4  
Since 1 July heating degree days 6  
Cooling Degree Days 19 8  
Month to date cooling degree days 395  
Year to date cooling degree days 2577  
Growing Degree Days 34 (Base 50)    
Moisture  
Dew Point 70 °F    
Average Humidity 65    
Maximum Humidity 82    
Minimum Humidity 48    
Precipitation  
Precipitation 0.00 in 0.07 in 1.87 in (1903)
Month to date precipitation 2.55  
Year to date precipitation 26.66  
Sea Level Pressure  
Sea Level Pressure 29.95 in    
Wind  
Wind Speed 13 mph ()    
Max Wind Speed 18 mph    
Max Gust Speed 25 mph    
Visibility 10.0 miles    
Events      
T = Trace of Precipitation, MM = Missing Value Source: Averaged Metar Reports

Daily Weather History Graph

Daily Weather History Graph

Search for Another Location

Airport or City:

Astronomy

Sep. 30, 2019 Rise Set
Actual Time 7:21 AM CDT 7:14 PM CDT
Civil Twilight 6:56 AM CDT 7:38 PM CDT
Nautical Twilight 6:28 AM CDT 8:07 PM CDT
Astronomical Twilight 5:59 AM CDT 8:36 PM CDT
Moon 9:22 AM CDT (9/30) 8:57 PM CDT (9/30)
Length of Visible Light 12h 42m
Length of Day
11h 52m
Waxing Crescent, 6% of the Moon is Illuminated
Sep 30
Waxing Crescent
Oct 5
First Quarter
Oct 13
Full
Oct 21
Last Quarter
Oct 27
New

Hourly Weather History & Observations

Time (CDT) Temp. Heat Index Dew Point Humidity Pressure Visibility Wind Dir Wind Speed Gust Speed Precip Events Conditions
12:53 AM 81.0 °F 83.3 °F 66.9 °F 62% 29.97 in 10.0 mi South 13.8 mph - N/A   Clear
1:53 AM 81.0 °F 83.8 °F 68.0 °F 65% 29.97 in 10.0 mi South 15.0 mph 23.0 mph N/A   Clear
2:53 AM 79.0 °F - 68.0 °F 69% 29.96 in 10.0 mi South 15.0 mph - N/A   Clear
3:53 AM 77.0 °F - 69.1 °F 76% 29.96 in 10.0 mi South 10.4 mph - N/A   Clear
4:53 AM 77.0 °F - 69.1 °F 76% 29.97 in 10.0 mi South 11.5 mph - N/A   Partly Cloudy
5:53 AM 75.9 °F - 70.0 °F 82% 29.97 in 10.0 mi South 11.5 mph - N/A   Mostly Cloudy
6:32 AM 77.0 °F - 70.0 °F 79% 30.01 in 10.0 mi South 15.0 mph - N/A   Overcast
6:53 AM 77.0 °F - 70.0 °F 79% 29.99 in 10.0 mi South 16.1 mph 21.9 mph N/A   Overcast
7:53 AM 78.1 °F - 70.0 °F 76% 29.99 in 10.0 mi South 12.7 mph - N/A   Mostly Cloudy
8:29 AM 78.1 °F - 71.1 °F 79% 30.01 in 10.0 mi SSE 13.8 mph - N/A   Mostly Cloudy
8:53 AM 79.0 °F - 71.1 °F 77% 29.99 in 10.0 mi South 13.8 mph - N/A   Mostly Cloudy
8:58 AM 80.1 °F 83.6 °F 71.1 °F 74% 30.01 in 10.0 mi South 12.7 mph - N/A   Mostly Cloudy
9:53 AM 81.0 °F 85.2 °F 72.0 °F 74% 30.00 in 10.0 mi SSE 15.0 mph - N/A   Mostly Cloudy
10:53 AM 84.9 °F 90.1 °F 71.1 °F 63% 30.00 in 10.0 mi South 18.4 mph - N/A   Mostly Cloudy
11:53 AM 88.0 °F 93.8 °F 71.1 °F 57% 29.99 in 10.0 mi South 18.4 mph 25.3 mph N/A   Mostly Cloudy
12:53 PM 88.0 °F 93.8 °F 71.1 °F 57% 29.98 in 10.0 mi South 17.3 mph 24.2 mph N/A   Mostly Cloudy
1:53 PM 89.1 °F 95.0 °F 71.1 °F 55% 29.95 in 10.0 mi South 11.5 mph - N/A   Mostly Cloudy
2:53 PM 91.0 °F 97.6 °F 71.1 °F 52% 29.93 in 10.0 mi SSE 15.0 mph - N/A   Overcast
3:53 PM 91.9 °F 98.4 °F 71.1 °F 50% 29.91 in 10.0 mi South 16.1 mph 20.7 mph N/A   Mostly Cloudy
4:53 PM 93.0 °F 100.1 °F 71.1 °F 49% 29.89 in 10.0 mi SSE 11.5 mph - N/A   Mostly Cloudy
5:53 PM 91.9 °F 97.4 °F 70.0 °F 48% 29.88 in 10.0 mi SSE 13.8 mph - N/A   Scattered Clouds
6:53 PM 89.1 °F 94.1 °F 70.0 °F 53% 29.88 in 10.0 mi ESE 11.5 mph - N/A   Scattered Clouds
7:53 PM 88.0 °F 92.9 °F 70.0 °F 55% 29.87 in 10.0 mi ESE 10.4 mph 21.9 mph N/A   Mostly Cloudy
8:53 PM 87.1 °F 92.0 °F 70.0 °F 57% 29.88 in 10.0 mi SE 15.0 mph - N/A   Partly Cloudy
9:53 PM 86.0 °F 90.7 °F 70.0 °F 59% 29.91 in 10.0 mi ESE 15.0 mph 23.0 mph N/A   Scattered Clouds
10:53 PM 84.0 °F 88.4 °F 70.0 °F 63% 29.91 in 10.0 mi SE 16.1 mph - N/A   Scattered Clouds
11:53 PM 82.9 °F 86.5 °F 69.1 °F 63% 29.91 in 10.0 mi SE 16.1 mph 25.3 mph N/A   Partly Cloudy